GFSSE_sfc_thetae_000.txt.gz
Theta_e
325 331 344 345 347 348 349 349 349 349 349 348 348 348 348 346 346 346 347 347 348 348 348 349 349 349 349 348 347 347 347 347 347 347 347 347 349 346 353 353 352 349 352
326 331 341 344 344 346 348 348 348 349 348 347 347 346 345 344 344 343 343 344 345 347 347 346 346 345 345 346 347 347 346 346 346 346 345 345 346 345 351 353 352 350 351
327 332 335 342 342 343 345 346 346 347 347 345 344 342 341 341 342 340 339 340 342 342 343 342 341 339 340 342 343 345 346 346 346 345 342 336 338 351 351 353 353 352 352
326 327 330 339 339 339 339 340 341 341 340 339 339 337 336 337 338 337 335 334 335 337 340 339 336 334 334 336 337 339 340 339 339 341 337 335 336 347 343 348 348 350 350
321 324 328 337 338 338 338 338 338 337 337 337 334 335 334 333 331 329 327 326 326 330 331 329 326 325 324 326 328 331 332 332 332 332 334 335 335 340 345 347 346 346 346
318 322 330 335 336 336 335 337 336 336 334 333 331 331 328 327 324 323 322 322 322 323 322 322 321 321 320 320 321 321 321 321 320 316 323 330 333 341 346 347 348 347 345
316 320 324 333 332 332 332 333 331 333 329 327 326 325 323 321 320 320 319 319 319 319 320 319 319 318 318 318 317 316 315 316 310 306 306 311 321 335 342 346 347 346 345
315 316 320 327 330 329 328 327 327 328 326 324 322 321 320 319 318 318 317 317 317 317 317 317 317 316 316 317 317 315 315 315 306 304 307 310 323 332 342 344 347 345 343
312 312 313 316 321 326 326 325 324 324 323 321 320 319 317 315 314 314 314 315 316 316 316 316 315 313 313 313 312 312 312 311 299 302 305 307 321 326 332 337 340 344 343
309 309 308 309 310 310 314 322 322 322 320 319 317 315 314 312 309 310 310 312 314 314 313 312 311 310 309 310 310 310 309 307 300 301 302 307 317 322 325 327 329 332 336
306 307 305 305 305 305 306 312 318 319 317 316 314 313 307 298 300 301 308 310 310 310 310 309 308 306 305 305 306 306 304 299 299 300 301 310 314 318 321 322 323 325 327
302 302 304 303 302 300 306 306 305 305 302 301 300 301 297 295 296 301 306 307 306 305 306 306 304 302 299 295 295 300 296 296 297 297 298 308 311 315 317 319 320 321 323
301 301 302 301 300 298 301 300 298 298 297 297 295 296 295 296 296 294 294 294 293 296 292 294 293 293 292 293 293 293 294 294 294 295 299 306 308 311 315 317 319 320 321
294 298 299 299 298 297 296 298 296 296 294 294 294 295 293 292 292 292 291 291 290 290 289 289 290 291 291 292 292 292 291 292 292 294 296 303 305 308 312 314 316 318 319
292 295 296 297 297 297 294 295 294 294 295 294 293 294 293 292 291 291 290 289 288 288 288 288 288 289 289 290 291 291 290 290 291 292 293 300 303 306 309 312 314 317 318
295 294 295 296 296 295 294 294 295 294 294 293 291 292 293 291 290 290 289 289 288 288 287 288 287 288 288 289 289 290 289 290 290 291 292 293 301 303 306 310 312 314 315
296 295 293 295 295 294 294 294 294 294 294 292 290 290 291 290 289 288 288 287 287 287 287 287 287 287 286 288 287 288 289 290 290 290 290 291 293 299 303 307 309 311 312
296 294 294 296 294 294 294 294 294 293 293 291 289 289 290 289 289 287 287 286 287 286 286 286 285 285 285 285 285 286 287 288 289 289 290 290 291 293 298 304 307 308 309
296 295 293 294 293 294 293 293 292 291 291 291 289 288 288 288 288 287 286 286 286 286 285 286 284 284 284 284 285 286 286 287 287 289 289 290 291 293 293 299 304 306 308
296 296 294 293 293 293 292 290 289 289 289 289 288 287 287 287 287 286 285 285 286 285 284 284 283 284 284 284 286 286 285 286 286 286 287 289 289 290 292 293 295 297 303
295 294 292 292 292 293 291 290 289 289 288 286 286 287 286 286 286 285 285 284 285 284 284 283 284 283 283 283 282 283 284 285 285 285 285 286 288 289 289 290 291 292 294
295 293 292 292 291 293 293 292 290 288 285 287 286 286 286 286 285 285 284 283 283 283 283 283 283 282 282 283 281 280 279 282 285 285 285 285 285 286 288 290 290 292 290
292 292 291 292 291 292 292 289 286 285 284 283 284 284 284 284 285 284 284 283 283 283 282 282 282 282 281 281 282 281 278 277 280 284 284 285 284 285 286 287 287 288 291
292 291 291 291 291 292 291 289 287 289 286 286 286 284 283 284 284 284 283 283 282 282 281 282 283 281 281 280 281 283 281 281 278 277 282 282 284 284 284 285 286 287 288
290 290 291 291 291 290 290 290 288 288 288 283 283 282 283 282 283 283 282 281 281 281 281 282 281 281 281 280 280 280 280 279 279 278 277 279 282 282 284 284 284 285 286
287 289 289 289 289 289 289 288 288 287 284 283 283 283 282 282 282 282 282 281 281 281 281 281 281 280 280 280 279 279 279 278 278 278 276 277 277 280 282 283 283 284 285

GFSSE_sfc_thetae_003.txt.gz
Theta_e
324 331 347 347 348 349 350 349 348 348 348 349 349 348 347 345 346 347 347 347 347 348 348 348 347 347 347 347 345 345 346 345 344 343 342 346 347 346 350 352 351 347 351
327 331 344 346 347 348 349 348 349 350 349 347 346 346 344 344 343 343 344 344 345 346 346 345 344 344 344 344 346 346 345 345 344 344 342 340 343 350 352 352 351 349 351
328 330 337 344 345 347 349 349 349 348 347 346 345 344 343 342 341 340 338 340 342 343 342 341 339 337 337 338 339 340 340 338 338 339 341 334 333 346 349 352 351 350 350
327 330 332 341 344 344 347 347 347 347 345 343 341 339 338 337 338 336 336 336 337 338 338 335 332 330 329 329 331 332 332 331 330 328 330 334 335 341 347 347 347 347 347
324 327 330 340 341 341 342 343 341 341 340 337 336 336 336 334 332 330 329 329 332 332 329 327 325 324 323 323 323 323 322 320 319 312 315 322 328 336 345 346 345 345 344
320 323 331 338 339 339 340 340 339 338 337 336 335 335 333 330 327 325 324 324 325 324 323 322 321 320 320 320 319 318 319 318 313 305 305 308 312 332 340 344 346 346 344
317 320 327 336 338 337 338 338 337 337 336 334 334 331 328 325 323 322 322 321 321 321 321 319 318 319 319 319 318 317 316 313 303 302 305 308 315 331 341 343 344 345 343
317 319 323 331 334 335 336 335 335 334 332 329 329 326 324 322 321 320 319 320 319 319 319 318 318 317 317 316 315 314 313 311 301 300 302 306 321 329 334 336 338 341 343
315 316 317 320 325 329 332 331 332 331 328 325 324 323 321 319 318 318 317 318 318 318 317 317 314 314 313 313 313 311 310 309 298 300 302 305 318 325 328 328 330 331 334
311 312 312 313 316 316 318 325 327 329 326 324 322 321 319 316 315 315 316 317 317 316 315 313 311 310 310 310 309 307 306 304 297 298 300 305 316 321 324 324 325 326 327
309 309 309 309 309 309 311 315 322 324 323 322 319 317 313 301 302 304 311 315 313 313 312 310 308 306 305 305 306 304 302 295 295 296 298 309 313 317 320 321 321 323 323
307 307 308 306 306 305 308 309 309 311 309 306 305 303 297 295 297 301 307 311 309 308 309 307 304 302 297 293 293 297 293 293 293 294 296 306 310 314 317 319 320 321 322
308 307 306 306 303 302 303 303 303 302 300 299 298 297 294 294 297 295 294 292 292 296 291 293 291 291 291 291 291 290 291 291 291 292 296 303 307 310 313 315 318 319 320
302 306 305 304 302 299 299 301 300 298 296 295 294 295 292 293 292 291 291 290 289 289 288 289 289 289 289 290 290 289 289 289 289 291 293 301 304 309 312 314 315 317 319
296 302 302 302 302 300 297 298 296 296 297 294 293 294 293 291 290 290 289 288 287 288 287 287 287 288 288 289 289 288 288 288 289 290 291 298 302 306 309 312 314 315 317
295 295 299 300 301 299 297 297 297 295 294 293 292 293 292 291 290 289 288 287 287 287 287 287 286 286 286 287 287 288 288 288 289 289 290 290 299 302 306 310 312 313 314
296 294 295 298 298 298 296 295 295 294 294 293 291 292 292 291 289 289 288 286 286 286 287 286 286 285 285 286 285 286 287 288 288 288 289 290 291 298 303 307 309 310 310
296 293 294 297 297 297 296 294 294 293 294 293 290 290 291 290 289 288 287 286 286 286 285 285 284 284 284 284 284 285 286 287 287 288 289 289 290 292 295 303 307 309 310
296 295 293 294 295 295 294 294 293 292 293 292 289 289 289 289 289 288 286 285 285 285 284 285 283 283 282 283 284 285 285 285 286 288 287 288 289 289 291 297 300 302 307
295 295 294 293 294 294 293 292 290 290 290 289 290 288 288 288 288 287 285 285 285 284 284 283 282 283 283 282 284 284 284 285 285 286 285 287 288 288 288 289 291 293 299
293 293 293 292 292 293 291 290 290 290 290 289 288 288 288 287 287 285 284 284 284 283 283 282 283 282 282 282 281 282 283 285 284 284 284 285 286 286 288 288 288 289 290
294 293 293 292 291 293 293 293 290 292 287 289 287 286 286 286 285 285 284 283 283 282 282 282 282 281 281 281 280 280 279 281 284 284 284 285 283 285 286 287 287 288 288
292 292 292 292 291 293 293 290 285 284 283 283 283 285 285 285 285 285 284 283 283 282 282 281 281 281 280 281 281 280 277 277 279 282 283 283 283 283 283 285 286 287 289
293 292 292 292 291 292 292 290 289 288 287 287 288 287 284 284 284 284 284 283 282 282 281 281 282 281 280 279 281 282 281 280 277 276 281 281 282 282 282 283 284 285 286
290 289 290 290 290 291 291 291 289 289 289 284 283 282 283 282 283 283 283 282 281 281 281 281 281 280 280 280 280 279 279 278 278 278 277 278 280 281 282 282 283 283 285
287 288 288 289 289 290 290 290 289 289 285 284 283 283 283 283 282 282 282 281 281 280 281 281 281 280 280 280 279 279 279 277 278 277 276 276 277 279 281 282 282 283 284

GFSSE_sfc_thetae_006.txt.gz
Theta_e
322 330 347 348 349 349 349 349 348 348 348 349 349 349 348 347 347 347 347 346 346 348 348 347 347 348 347 346 346 346 345 344 343 343 343 343 347 350 351 351 350 347 350
324 331 346 348 348 349 350 349 348 348 348 349 349 346 344 345 345 346 345 345 347 347 347 346 344 343 343 342 342 341 341 339 338 339 341 339 341 349 351 351 350 348 351
327 332 339 347 349 349 350 350 349 348 349 346 347 345 345 344 342 340 342 343 344 344 343 340 338 337 336 335 336 336 335 333 331 330 333 332 334 346 348 350 349 347 348
328 330 334 344 347 348 350 350 349 349 348 346 345 343 341 341 341 339 337 338 339 340 337 334 331 329 328 328 328 327 325 324 320 318 314 318 322 339 347 347 346 345 344
325 328 331 342 345 346 347 347 348 347 346 343 340 339 338 337 336 335 334 336 336 334 331 329 326 325 324 324 322 321 321 318 315 309 306 310 313 329 342 345 344 344 344
322 325 333 341 342 343 343 345 343 344 341 338 337 338 337 335 333 330 329 330 329 327 326 324 322 322 321 321 321 320 316 314 309 303 306 313 316 334 343 344 344 345 344
318 321 327 339 341 340 340 342 341 340 339 337 336 336 335 331 328 326 324 325 324 323 322 321 321 321 321 319 318 317 314 311 300 301 303 308 317 333 337 338 339 341 343
317 319 324 333 337 338 339 341 340 338 338 336 335 333 329 326 324 323 322 321 321 321 320 320 319 318 317 316 315 314 312 308 300 299 301 305 321 329 331 331 332 333 335
315 317 320 323 329 332 335 336 337 338 335 334 332 329 325 323 322 320 320 320 320 320 320 316 316 315 315 314 312 310 309 306 295 297 301 304 320 325 327 327 328 329 330
313 314 315 317 319 320 322 329 331 332 332 330 328 326 324 322 320 319 320 320 319 319 316 314 313 313 312 310 309 307 304 302 294 295 298 305 316 320 323 324 324 325 326
310 311 312 313 314 314 315 318 324 328 327 325 323 321 313 304 306 306 310 319 317 316 314 312 310 308 307 307 306 303 300 292 292 293 296 308 313 317 319 320 321 322 323
307 309 310 309 310 310 313 312 313 315 314 311 309 306 300 298 299 302 309 316 315 314 311 309 307 303 296 291 292 295 290 291 291 292 294 306 310 314 316 317 319 320 321
310 310 309 308 307 306 307 307 307 306 305 304 302 299 296 295 298 298 297 296 295 299 293 294 291 290 290 290 289 288 289 289 289 290 295 304 308 311 313 315 317 319 320
305 308 308 307 305 304 303 305 304 304 301 300 298 296 292 292 293 293 291 289 289 288 288 288 288 288 288 289 288 288 287 288 288 289 291 301 305 310 313 315 317 318 318
300 306 306 306 306 305 301 302 301 301 301 298 295 295 292 292 291 290 289 288 287 287 287 287 287 287 287 287 287 287 287 287 288 288 289 298 303 307 311 314 315 315 317
299 302 306 305 306 304 303 301 303 301 297 295 293 294 292 292 290 289 288 287 286 286 286 286 286 286 286 286 286 286 287 287 287 288 289 290 301 305 308 311 312 312 314
297 297 301 304 305 303 303 300 300 299 296 294 293 292 292 291 290 289 288 286 286 286 286 285 285 285 284 285 284 285 286 287 287 288 289 289 290 299 305 310 311 312 312
298 295 296 302 303 302 302 299 298 296 296 295 292 292 291 291 289 288 287 286 286 285 285 284 283 283 283 283 283 284 284 286 287 288 287 288 289 290 296 303 305 308 310
297 296 294 297 299 301 301 297 296 294 295 294 291 291 291 290 289 288 287 285 285 284 284 284 283 282 282 282 283 283 284 285 286 287 285 287 287 288 288 294 296 298 302
296 296 295 294 297 297 298 293 291 290 291 290 291 290 290 290 289 288 286 285 285 284 283 282 282 282 282 282 283 283 283 284 284 284 285 287 286 287 286 286 287 289 298
292 293 293 292 294 295 293 291 290 292 290 290 290 290 290 289 288 287 286 284 284 283 283 282 282 282 281 281 281 282 282 284 284 284 284 284 285 285 285 286 286 287 289
293 292 292 292 292 294 294 294 291 294 290 291 290 288 289 287 287 287 286 284 284 282 282 282 282 281 281 280 280 279 279 280 282 284 283 284 282 284 284 285 285 286 287
291 290 292 292 291 293 293 291 285 285 284 284 285 286 286 287 286 286 286 285 284 283 282 281 281 282 280 280 280 281 278 278 278 281 282 282 281 282 282 283 284 285 286
292 291 291 291 290 292 292 290 289 289 288 289 290 290 287 286 286 286 285 284 284 283 281 281 281 280 281 279 281 282 280 280 277 277 279 280 281 281 281 282 283 284 285
291 290 289 290 289 291 291 291 290 290 291 286 286 286 286 285 285 285 284 283 283 282 281 282 280 280 280 280 280 279 279 278 278 277 276 278 279 280 281 281 282 283 285
288 287 287 288 288 289 290 290 290 290 284 285 284 285 284 284 283 283 283 283 283 282 281 281 281 280 280 280 279 279 279 277 277 277 276 276 276 278 279 280 281 282 284

GFSSE_sfc_thetae_009.txt.gz
Theta_e
329 336 349 351 350 349 349 348 349 348 348 348 349 349 348 348 348 346 346 347 348 349 348 347 348 347 346 346 345 343 341 339 340 342 342 344 350 352 351 350 350 349 351
330 336 347 350 350 350 350 351 350 348 348 348 349 346 345 347 347 347 346 348 348 348 347 346 345 343 341 340 340 340 337 336 334 336 338 339 345 350 349 350 350 348 350
329 337 346 348 350 351 351 350 349 348 348 349 347 346 345 345 344 343 344 345 347 345 344 341 337 337 336 336 334 332 330 328 325 324 326 329 338 346 349 349 348 345 345
331 338 344 345 349 350 351 350 349 348 349 347 347 346 345 343 342 339 339 340 343 341 339 335 332 330 329 329 327 327 326 322 320 317 318 322 326 341 344 347 345 344 344
331 337 339 345 349 350 350 350 350 349 349 347 346 343 340 339 338 336 336 337 337 337 333 330 327 326 325 325 324 322 319 318 316 315 319 326 331 340 345 346 345 344 344
330 333 337 344 347 347 349 349 348 349 348 344 342 339 339 338 335 333 333 335 333 331 329 325 324 324 324 323 321 318 316 314 311 313 318 324 331 337 341 341 341 345 344
328 331 335 342 344 345 345 347 346 347 343 342 338 338 338 335 333 330 329 329 328 326 323 323 323 323 320 320 319 316 314 311 307 310 314 320 330 335 335 336 336 338 341
326 327 331 335 339 342 340 343 344 344 343 340 338 336 335 333 329 327 326 325 324 323 322 322 321 319 319 317 316 314 310 306 304 307 311 317 325 329 330 331 332 333 334
323 324 328 333 335 334 336 338 340 341 340 339 336 335 333 329 326 324 323 323 323 322 321 319 318 318 317 315 313 310 308 305 302 306 309 315 321 325 326 327 328 329 329
319 322 324 328 329 333 335 331 334 336 337 337 335 332 327 326 325 324 324 323 322 322 319 317 316 316 314 312 309 306 304 302 300 303 307 312 317 320 322 323 324 326 326
315 318 320 323 325 326 328 328 329 331 331 330 328 324 321 318 318 318 317 323 321 319 316 315 314 312 310 308 306 303 299 298 298 300 305 309 314 318 319 320 321 322 323
314 315 316 319 321 321 320 324 326 327 327 324 321 318 312 311 311 310 313 320 320 317 314 312 309 304 298 297 298 297 296 296 297 298 302 307 311 314 316 318 319 320 322
315 315 315 316 318 317 318 318 319 321 320 317 315 310 307 306 308 308 310 309 309 307 305 304 299 297 297 296 295 295 295 296 296 296 300 306 311 313 316 317 319 320 320
310 313 315 314 314 314 315 315 316 316 314 313 311 307 304 302 304 304 304 303 302 300 298 296 296 296 295 294 294 294 294 295 295 296 298 303 308 312 315 317 318 319 319
307 311 312 313 314 313 311 313 313 313 312 311 307 304 302 300 301 301 300 297 297 295 295 294 294 294 294 293 293 293 293 294 294 295 297 303 307 311 315 316 315 318 319
306 307 311 311 313 313 312 311 312 312 311 307 306 304 300 299 300 299 296 294 294 294 293 294 293 293 293 293 292 292 292 293 293 295 296 300 305 308 312 314 314 315 315
302 305 308 310 312 311 311 310 310 310 306 306 304 302 299 298 297 297 295 293 293 293 293 292 291 291 291 291 291 291 292 293 293 294 295 296 301 308 310 312 312 315 316
301 300 303 308 309 310 310 310 309 307 306 306 303 301 299 297 296 295 294 293 292 291 292 291 291 290 290 291 290 290 291 292 293 292 293 294 295 295 299 302 307 309 309
300 300 299 304 307 308 309 309 308 305 305 304 301 299 298 296 295 295 294 292 291 291 290 290 289 290 289 289 289 290 291 292 291 291 291 292 292 292 292 297 300 302 304
299 299 299 299 304 306 307 306 304 300 303 301 299 298 296 296 294 294 293 292 291 290 289 289 289 288 289 289 287 288 290 290 290 291 290 290 291 291 292 292 294 296 301
297 296 296 295 299 302 302 299 297 297 299 297 298 297 296 296 294 294 293 291 290 290 289 289 288 288 287 288 288 288 289 289 289 290 290 289 289 290 290 291 292 293 296
297 295 295 295 296 299 301 301 299 300 298 298 297 295 296 295 294 293 292 290 289 289 288 288 288 287 287 287 289 288 286 287 288 289 289 288 288 289 289 289 290 291 293
296 295 294 294 294 297 298 297 290 291 290 291 291 292 292 293 292 293 292 291 289 289 288 287 288 289 287 286 286 290 285 287 286 287 287 288 287 288 288 288 289 290 292
295 295 294 294 293 295 296 295 295 294 293 293 295 294 292 292 292 292 291 290 289 289 288 287 287 288 288 286 286 285 286 287 286 284 285 286 287 286 287 287 288 289 292
292 292 293 292 292 294 294 295 294 294 295 292 293 292 291 290 291 290 290 289 288 288 288 287 286 286 287 287 287 285 284 284 284 285 284 284 285 286 286 287 288 290 290
291 289 290 290 290 291 293 293 293 293 291 290 290 290 289 288 288 288 288 288 288 288 287 286 287 287 286 286 286 286 285 284 283 284 283 283 283 284 285 286 287 289 287

GFSSE_sfc_thetae_012.txt.gz
Theta_e
333 340 349 352 351 350 350 349 349 349 349 350 349 348 348 347 346 346 346 348 350 349 349 348 347 346 346 343 343 341 340 339 340 342 344 349 351 351 351 350 351 350 351
334 343 348 351 351 351 350 350 349 349 349 349 350 347 348 348 348 347 347 348 349 348 347 346 344 343 341 340 339 337 335 334 334 334 336 346 349 348 347 347 347 345 347
333 344 349 350 352 351 351 351 349 348 349 349 348 346 345 346 346 346 346 347 346 345 344 342 339 337 337 335 333 331 330 327 326 324 329 339 345 347 348 346 346 343 344
333 343 347 347 350 351 351 351 349 348 348 349 348 347 346 344 342 340 342 345 344 341 340 337 333 331 330 328 328 327 324 322 321 322 332 333 337 343 345 346 344 342 342
333 341 345 345 350 350 351 351 349 348 348 348 348 347 345 341 338 337 337 337 337 337 335 331 329 327 325 325 323 320 319 317 317 327 330 333 338 344 346 345 344 342 343
333 338 342 346 349 350 350 350 349 348 349 348 347 343 340 338 338 334 335 337 336 334 331 327 326 325 323 322 319 317 315 313 316 319 326 331 337 339 341 339 344 343 344
333 338 342 344 347 349 349 350 349 348 349 347 343 341 340 339 336 334 333 334 332 329 326 325 325 322 321 319 317 315 313 312 312 315 320 328 334 334 335 336 337 338 340
333 338 341 338 341 344 346 348 348 349 347 344 341 338 339 336 334 331 330 330 328 325 324 324 322 320 319 317 315 312 309 307 311 314 318 323 327 329 330 331 332 332 334
334 336 339 341 340 336 340 341 343 344 343 343 341 338 338 335 331 329 327 326 325 323 323 321 320 319 317 315 312 310 307 306 308 311 312 318 321 324 325 326 327 328 329
332 334 336 338 340 340 340 332 335 339 339 339 337 334 332 330 329 327 325 325 323 323 321 320 319 317 315 312 309 306 304 303 305 308 311 314 319 321 323 323 324 325 326
326 330 333 335 337 337 337 333 330 332 334 333 332 328 325 328 325 322 322 325 323 321 319 318 316 314 311 308 305 302 301 303 303 305 308 310 315 318 319 320 321 322 323
324 326 329 331 333 334 333 336 337 337 337 336 334 332 329 325 323 320 318 321 324 320 317 315 313 308 302 304 302 300 302 302 302 302 306 308 312 314 316 317 318 320 322
322 325 325 327 330 331 331 332 334 335 336 335 333 330 326 321 319 318 318 319 320 315 314 311 307 303 303 303 302 302 301 302 302 302 303 307 312 313 315 317 319 319 320
318 322 324 325 326 329 330 330 331 332 333 330 329 326 321 319 317 315 316 317 317 314 311 307 303 303 302 300 300 300 300 301 301 302 302 305 309 312 315 317 318 319 320
315 318 321 324 324 326 327 327 328 328 329 328 325 322 320 317 314 313 314 314 313 311 307 302 302 301 300 299 299 299 299 299 300 301 304 305 309 312 315 316 317 319 320
313 315 318 321 323 324 325 325 326 326 327 327 323 320 318 316 312 310 311 311 309 306 302 302 301 300 300 299 298 298 298 299 300 301 303 306 307 310 312 313 315 316 318
311 313 315 318 320 322 322 324 324 324 323 324 321 319 315 314 310 308 308 308 305 302 301 300 299 299 298 297 297 297 298 298 299 299 300 304 309 309 312 312 314 317 317
310 310 312 314 317 319 321 322 322 322 321 320 320 318 314 311 309 306 306 304 302 300 299 299 298 297 297 297 296 297 297 298 297 298 299 301 303 302 303 306 309 310 311
310 309 309 311 313 316 319 320 321 320 319 318 318 316 313 310 307 305 304 303 300 298 298 298 297 297 296 296 296 296 297 298 296 296 297 297 296 297 299 301 302 303 305
309 309 309 308 310 313 316 318 318 317 317 317 316 314 312 309 305 304 302 302 299 298 297 297 296 296 297 296 292 294 296 296 296 296 295 294 295 295 296 297 300 301 304
307 306 306 306 306 310 311 312 314 313 313 313 314 312 311 309 305 303 302 300 298 297 297 297 296 294 294 295 295 293 293 294 295 294 295 294 294 294 294 296 297 300 303
304 305 305 304 304 307 309 311 311 311 311 311 311 310 309 307 304 302 302 300 298 297 297 296 295 294 295 294 295 295 291 291 293 293 293 292 292 293 293 293 295 296 300
300 300 301 302 303 304 307 308 308 305 306 306 306 306 305 306 304 302 301 300 298 298 296 296 296 296 294 293 295 297 292 293 292 292 292 291 291 292 293 293 293 295 300
297 298 299 300 300 301 303 304 303 302 301 302 303 303 303 303 302 301 301 299 299 297 297 297 296 297 298 293 292 291 293 296 293 288 291 291 291 290 291 292 293 294 297
296 296 297 298 298 299 300 301 301 301 302 303 301 302 301 301 301 300 299 298 298 297 297 296 295 295 296 297 295 291 291 291 292 294 289 288 290 290 290 291 292 294 294
296 296 295 295 295 296 298 299 299 299 299 299 298 298 299 299 298 298 298 298 297 296 296 295 295 295 295 295 296 294 293 291 290 291 291 289 288 288 289 290 292 293 292